Location: Prairie Dale
(45.6972°N, 104.5033°W)
Time: 14:19:06
(UTC+00:00)

Envisat - Pass Details

Date: 28 January 2022
Orbit: 764 x 765 km, 98.2° (Epoch: 15 May)

Event Time Altitude Azimuth Distance (km) Brightness Sun altitude
Rises 13:03:57 0° 3° (N) 3,242 6.2 -14.1°
Reaches altitude 10° 13:06:35 10° 351° (N) 2,312 5.3 -13.6°
Maximum altitude 13:10:42 26° 296° (WNW) 1,490 3.9 -12.9°
Drops below altitude 10° 13:14:49 10° 242° (WSW) 2,300 5.0 -12.2°
Sets 13:17:27 0° 230° (SW) 3,222 5.9 -11.8°
